This is the latest recevied weather packets stored in our database for station/object N3FAA. If no packets are shown the sender has not sent any weather packets the latest 10 day(s).
| Time | Temp. | Humidity | Pressure | Rain* | Wind** | Luminosity | Snow |
|---|---|---|---|---|---|---|---|
| 1778154088 | 12.22° C | 65% | 1014.1 hPa | 0 mm | - | 0 W/m² | - |
| 1778153786 | 12.22° C | 64% | 1014.4 hPa | 0 mm | - | 0 W/m² | - |
| 1778153482 | 12.78° C | 63% | 1014.3 hPa | 0 mm | - | 0 W/m² | - |
| 1778153181 | 12.78° C | 63% | 1014.1 hPa | 0 mm | - | 0 W/m² | - |
| 1778152877 | 12.78° C | 63% | 1014 hPa | 0 mm | - | 0 W/m² | - |
| 1778152574 | 12.78° C | 62% | 1014.3 hPa | 0 mm | - | 0 W/m² | - |
| 1778152271 | 13.33° C | 61% | 1014.1 hPa | 0 mm | - | 0 W/m² | - |
| 1778151967 | 13.33° C | 61% | 1014.3 hPa | 0 mm | - | 0 W/m² | - |
| 1778151664 | 13.33° C | 61% | 1014.1 hPa | 0 mm | - | 0 W/m² | - |
| 1778151361 | 13.89° C | 60% | 1014.3 hPa | 0 mm | - | 0 W/m² | - |
| 1778151056 | 13.89° C | 59% | 1014.1 hPa | 0 mm | - | 0 W/m² | - |
| 1778150754 | 14.44° C | 59% | 1014.1 hPa | 0 mm | - | 0 W/m² | - |
| 1778150450 | 15° C | 57% | 1014.1 hPa | 0 mm | - | 0 W/m² | - |
| 1778150147 | 15° C | 56% | 1014.5 hPa | 0 mm | - | 0 W/m² | - |
| 1778149844 | 15.56° C | 55% | 1014.4 hPa | 0 mm | - | 0 W/m² | - |
| 1778149540 | 16.67° C | 52% | 1014 hPa | 0 mm | - | 0 W/m² | - |
| 1778149236 | 17.22° C | 50% | 1014.3 hPa | 0 mm | - | 0 W/m² | - |
| 1778148931 | 17.78° C | 49% | 1014 hPa | 0 mm | - | 0 W/m² | - |
| 1778148628 | 17.78° C | 49% | 1014.1 hPa | 0 mm | - | 0 W/m² | - |
| 1778148326 | 17.78° C | 48% | 1014.1 hPa | 0 mm | - | 0 W/m² | - |
| 1778148024 | 17.78° C | 48% | 1013.9 hPa | 0 mm | - | 0 W/m² | - |
| 1778147721 | 17.78° C | 48% | 1014 hPa | 0 mm | - | 0 W/m² | - |
| 1778147417 | 17.78° C | 48% | 1013.9 hPa | 0 mm | - | 0 W/m² | - |
| 1778147114 | 18.33° C | 48% | 1014.1 hPa | 0 mm | - | 0 W/m² | - |
| 1778146811 | 18.33° C | 47% | 1013.8 hPa | 0 mm | - | 0 W/m² | - |
* Rain latest hour (hover to see other rain measurements)
** Current wind speed in m/s (hover to see current wind gust speed)